STARLINK-5738, 55573

Orbit data source: Space-Track

STARLINK-5738, 55573 is a payload satellite owned by SpaceX/Seattle (US) in LEO that was launched on Sun, 12 Feb 2023 UTC via an FALCON 9 launch vehicle from the Air Force Eastern Test Range (AFETR). Payload-class satellites include a variety of spacecraft equipped with specific instruments for various scientific and technological missions. These include communications satellites like Starlink; space stations such as the ISS; scientific satellites like the Hubble; Earth observation satellites from companies like Planet Labs, Umbra, and HawkEye 360; GPS; miniature CubeSats for education and research; and military/defense satellites.

Loading next visibility...
Identifier
55573, 2023-020E
Orbit
LEO
Country
Flag of USUS
Related business
Manufacturer
SpaceX/Seattle
Mission
Operational spacecraft
Bus & Motor
STARLINK, Unknown motor
Mass
305 kg wet, ~290 kg dry
Launch date (UTC)
2023-02-12 (3 years ago)
Launch vehicle
FALCON 9
Launch site
Air Force Eastern Test Range (AFETR)
Object type
Payload
Rocket body
Debris
Shape & HBR
Unknown shape, 10.1 m
Radar Cross Section
Large (>1 m²)

Expand to show TLE details & history
Last TLE update: 9 hours ago

TLE from 9 hours ago
0 STARLINK-5738
1 55573U 23020E   25340.87049557  .00001059  00000-0  93448-4 0  9998
2 55573  43.0023 149.2721 0001320 268.3113  91.7579 15.02533857154956
Epoch: 2025-12-06T20:53Z
TLE epoch observation values (Epoch: 2025-12-06T20:53:30.817Z)
Latitude
0.00005°
Longitude
120.00172°
Altitude
558.892 km
Speed
7.584 km/s
True Right ascension
09h 57m 05s
True Declination
0° 00' 00"
Sunlit
Object was in daylight at epoch
Visualization orbit readout
Latitude
Unknown
Longitude
Unknown
Altitude
Unknown
Speed
Unknown
Apparent Right ascension
Unknown
Apparent Declination
Unknown
Sunlit
N/A
Visualization observer readout
Local Sidereal Time
04:18:28
Azimuth
Unknown
Elevation
Unknown
Doppler factor
Unknown
Orbital elements
Apogee altitude
561.926 km
Perigee altitude
560.094 km
Semi-major axis
6,939.147 km
Eccentricity
0.00013
Inclination
43.0023°
RAAN
149.2721°
Arg. of periapsis
268.3113°
True anomaly
91.77302°
Mean anomaly
91.7579°
Eccentric anomaly
91.76546°
Mean motion
3.75478 °/min
Orbital period
95.88 mins
BSTAR
0.000093448
Loading maneuver chart data...
Computing Atmospheric mass density...
Loading historical data...
Loading historical data...
Loading historical data...
Loading historical data...
Loading historical data...
Loading historical data...
Loading historical data...

Documentation

Showing up to 5 results
|